[[{"header":{"parameterUnit":"m.s-1","parameterCategory":1,"la1":30.2992,"la2":30.254,"lo1":-89.0895,"lo2":-89.0443,"dy":0.0025,"dx":0.0025,"nx":19,"ny":19,"refTime":"2026-05-10T21:00:00:Z","depth":0,"parameterNumber":2,"parameterNumberName":"U-component_of_WINDS"},"data":[0,0,0,-3.8675,-3.8676,-3.8723,-3.8723,-3.8812,-3.8813,0,0,0,0,0,0,0,0,0,0,0,-3.8676,-3.8677,-3.8674,-3.8676,-3.8723,-3.8723,-3.8812,-3.8813,0,0,0,0,0,0,0,0,0,0,0,-3.8676,-3.8677,-3.8678,-3.8676,-3.8723,-3.8723,-3.8812,-3.8767,0,0,0,0,0,0,0,0,0,0,-3.8716,-3.8732,-3.8677,-3.8678,-3.8677,-3.8723,-3.8723,-3.8764,-3.8769,-3.8803,0,-3.8835,0,-3.8826,-3.8821,-3.8821,0,0,0,-3.8665,-3.8728,-3.8726,-3.8679,-3.8677,-3.8723,-3.8698,-3.8767,-3.8773,-3.8811,-3.8836,-3.8839,-3.8827,-3.8822,-3.8822,-3.905,-3.9051,0,0,-3.8662,-3.8693,-3.8722,-3.8731,-3.8723,-3.8697,-3.87,-3.877,-3.8801,-3.8836,-3.884,-3.8829,-3.8823,-3.8823,-3.9048,-3.905,0,0,0,-3.8662,-3.8692,-3.8688,-3.8728,-3.8734,-3.8699,-3.8702,-3.8798,-3.8794,-3.8841,-3.883,-3.8823,-3.8825,-3.9046,-3.9049,-3.9156,0,0,0,-3.866,-3.8692,-3.8688,-3.8707,-3.8734,-3.8766,-3.8729,-3.8789,-3.8796,-3.8829,-3.8823,-3.8826,-3.9045,-3.9048,-3.9149,-3.9202,0,0,0,-3.8668,-3.8693,-3.8705,-3.8709,-3.873,-3.8764,-3.8764,-3.8789,-3.879,-3.8822,-3.8826,-3.9043,-3.9047,-3.9143,-3.9192,-3.927,0,0,0,-3.8685,-3.88,-3.8707,-3.8831,-3.873,-3.883,-3.8763,-3.8836,-3.8877,-3.8824,-3.9045,-3.9049,-3.9141,-3.9185,-3.9264,-3.9341,-3.9377,0,0,-3.8847,-3.882,-3.8891,-3.8809,-3.8934,-3.882,-3.8962,-3.897,-3.8946,-3.9017,-3.9022,-3.9152,-3.9191,-3.9269,-3.9565,-3.9593,0,0,0,-3.8953,-3.9004,-3.903,-3.9069,-3.9078,-3.909,-3.9074,-3.9077,-3.9136,-3.8988,-3.9201,-3.9223,-3.9268,-3.9303,-3.9327,-3.9364,-3.9067,-3.9066,-3.9066,-3.9225,-3.9188,-3.9302,-3.9271,-3.931,-3.9293,-3.9322,-3.9324,-3.9275,-3.9326,-3.9347,-3.9531,-3.9574,-3.9591,-3.963,-3.9385,-3.9386,-3.9386,-3.9386,-3.9458,-3.9525,-3.9457,-3.9544,-3.9505,-3.9578,-3.9568,-3.9531,-3.9595,-3.9512,-3.9549,-3.9461,-3.9623,-3.9655,-3.9394,-3.9393,-3.9392,-3.9391,-3.9391,-3.9632,-3.9657,-3.9659,-3.9713,-3.976,-3.9725,-3.979,-3.9752,-3.9718,-3.9755,-3.9773,-3.9771,-3.9764,-3.9766,-3.9767,-3.9768,-3.9768,-3.9769,-3.9769,-3.981,-3.9809,-3.9867,-3.9887,-3.9908,-3.9932,-3.9918,-3.9939,-3.9952,-3.992,-3.992,-3.9867,-3.9646,-3.9591,-3.9779,-3.9777,-3.9776,-3.9775,-3.9774,-4.0058,-3.9996,-4.0086,-4.0107,-4.0129,-4.0179,-4.0131,-4.0177,-4.0189,-4.0223,-4.0163,-4.0006,-3.9976,-3.9957,-3.9911,-4.017,-4.017,-4.017,-4.017,-4.0203,-4.0185,-4.0268,-4.0306,-4.0338,-4.0304,-4.041,-4.0402,-4.0384,-4.0389,-4.0347,-4.0284,-4.0266,-4.0247,-4.0221,-4.0177,-4.0498,-4.0499,-4.0499,-4.0354,-4.0337,-4.0432,-4.0412,-4.0428,-4.0443,-4.0541,-4.0589,-4.0556,-4.0512,-4.0393,-4.038,-4.0277,-4.0245,-4.0196,-4.0157,-4.0077,0,0]},{"header":{"parameterUnit":"m.s-1","parameterCategory":1,"la1":30.2992,"la2":30.254,"lo1":-89.0895,"lo2":-89.0443,"dy":0.0025,"dx":0.0025,"nx":19,"ny":19,"refTime":"2026-05-10T21:00:00:Z","depth":0,"parameterNumber":3,"parameterNumberName":"V-component_of_WINDS"},"data":[0,0,0,1.87,1.8699,1.8657,1.8657,1.8582,1.8581,0,0,0,0,0,0,0,0,0,0,0,1.8703,1.8702,1.87,1.8699,1.8657,1.8657,1.8582,1.8581,0,0,0,0,0,0,0,0,0,0,0,1.8703,1.8702,1.8701,1.8699,1.8657,1.8657,1.8583,1.8621,0,0,0,0,0,0,0,0,0,0,1.8664,1.8659,1.8703,1.8701,1.8698,1.8657,1.8657,1.8623,1.8618,1.8593,0,1.8572,0,1.8576,1.8575,1.8575,0,0,0,1.8705,1.8663,1.8661,1.8701,1.8698,1.8657,1.8678,1.8621,1.8615,1.8587,1.8571,1.8568,1.8574,1.8575,1.8574,1.8419,1.8418,0,0,1.8707,1.8689,1.8664,1.8657,1.8666,1.8679,1.8676,1.8618,1.8597,1.857,1.8567,1.8573,1.8574,1.8574,1.842,1.8418,0,0,0,1.871,1.869,1.869,1.8659,1.8654,1.8678,1.8675,1.86,1.8601,1.8566,1.8572,1.8574,1.8573,1.8421,1.8419,1.8353,0,0,0,1.8711,1.8692,1.8691,1.868,1.8655,1.8627,1.8657,1.8605,1.8599,1.8573,1.8574,1.8572,1.8422,1.842,1.8358,1.8324,0,0,0,1.8709,1.8692,1.8683,1.8679,1.8661,1.8628,1.8627,1.8605,1.8603,1.8575,1.8571,1.8423,1.842,1.8362,1.833,1.8278,0,0,0,1.87,1.8623,1.8682,1.8599,1.8661,1.859,1.8628,1.8574,1.8543,1.8573,1.8422,1.8419,1.8363,1.8334,1.8282,1.8229,1.8206,0,0,1.8593,1.861,1.8563,1.8614,1.8528,1.8598,1.8501,1.8487,1.8498,1.8443,1.844,1.8356,1.8331,1.8278,1.8088,1.8069,0,0,0,1.8523,1.8488,1.847,1.8441,1.8431,1.8419,1.8423,1.8418,1.8373,1.8468,1.8325,1.831,1.828,1.8255,1.824,1.8214,1.8408,1.8408,1.8408,1.8344,1.8367,1.829,1.8307,1.8279,1.8285,1.8263,1.8256,1.8284,1.825,1.8233,1.8115,1.8086,1.8075,1.8048,1.8209,1.8209,1.8209,1.8208,1.8189,1.8143,1.8187,1.8127,1.815,1.8099,1.8101,1.8124,1.8077,1.813,1.8104,1.8158,1.8054,1.8032,1.8204,1.8204,1.8205,1.8206,1.8206,1.8073,1.8055,1.8053,1.8015,1.7983,1.8003,1.7957,1.798,1.7999,1.7975,1.7958,1.7959,1.7962,1.7966,1.7966,1.7965,1.7965,1.7965,1.7964,1.7952,1.7953,1.7914,1.7899,1.7884,1.7867,1.7873,1.7858,1.7846,1.7865,1.7865,1.7895,1.8041,1.8076,1.7958,1.7959,1.796,1.796,1.7961,1.7783,1.7826,1.7765,1.7751,1.7735,1.7701,1.7732,1.7699,1.7689,1.7665,1.7703,1.7808,1.7824,1.7837,1.7866,1.77,1.77,1.77,1.77,1.7683,1.7696,1.764,1.7615,1.7593,1.7616,1.7544,1.7548,1.7557,1.7552,1.758,1.7621,1.7633,1.7643,1.7659,1.7686,1.7479,1.7478,1.7478,1.758,1.7592,1.7527,1.7542,1.7532,1.7522,1.7454,1.7421,1.7441,1.747,1.7548,1.7557,1.7624,1.7645,1.7673,1.7698,1.7748,0,0]}]]